ES0THZ-9 Weather Reports


time (UTC)temp
F
wind
direction
speed
knots
gust
knots
rain 1hr
in
rain 24hr
in
rain mn
in
humidity
%
barometer
mb
20260906051027 55 281 5.2 8.7 0.00 0.22 0.16 83 1006.7
20260906050036 55 278 5.2 9.6 0.00 0.22 0.16 85 1006.5
20260906045043 54 274 5.2 8.7 0.00 0.22 0.16 86 1006.4
20260906044021 54 270 4.3 7.8 0.00 0.22 0.16 87 1006.1
20260906043039 54 270 4.3 6.1 0.00 0.22 0.16 87 1005.8
20260906042017 54 270 3.5 7.0 0.00 0.22 0.16 87 1005.7
20260906041015 54 270 4.3 7.0 0.00 0.22 0.16 87 1005.5
20260906040534 54 270 4.3 7.0 0.00 0.22 0.16 87 1005.3
20260906035012 54 270 3.5 6.1 0.00 0.22 0.16 87 1005.0
20260906034019 54 270 4.3 6.1 0.00 0.22 0.16 87 1004.8
20260906033028 55 270 4.3 8.7 0.00 0.22 0.16 87 1004.7
20260906032015 55 280 4.3 8.7 0.00 0.22 0.16 88 1004.4
20260906031014 55 278 5.2 7.8 0.00 0.22 0.16 88 1004.2
20260906025500 55 275 4.3 7.8 0.00 0.22 0.16 88 1004.0
20260906024518 55 275 5.2 7.8 0.01 0.22 0.16 88 1003.9
20260906023456 55 278 6.1 8.7 0.02 0.22 0.16 88 1003.7
20260906022514 55 270 5.2 7.0 0.02 0.22 0.16 88 1003.5
20260906021453 55 265 4.3 6.1 0.02 0.22 0.16 88 1003.4
20260906020450 55 264 4.3 6.1 0.02 0.22 0.16 88 1003.3
20260906015508 55 277 5.2 10.4 0.02 0.21 0.15 88 1003.4
20260906014506 55 264 5.2 7.8 0.01 0.21 0.14 87 1003.4
20260906013504 55 260 3.5 6.1 0.00 0.20 0.13 87 1003.3
20260906012441 55 256 3.5 6.1 0.02 0.20 0.13 87 1003.1
20260906011440 55 253 3.5 6.1 0.02 0.20 0.13 87 1003.0
20260906010437 55 255 3.5 5.2 0.02 0.20 0.13 87 1002.9
20260906005456 55 259 4.3 7.8 0.02 0.20 0.13 87 1002.8
20260906004444 55 265 5.2 7.0 0.02 0.20 0.13 87 1002.8
20260906003432 55 258 4.3 7.0 0.02 0.20 0.13 86 1002.7
20260906002530 55 270 4.3 7.0 0.00 0.19 0.12 87 1002.7
20260906001428 56 280 5.2 7.8 0.00 0.19 0.12 87 1002.8
20260906000426 55 270 5.2 7.8 0.00 0.19 0.12 88 1002.7
20260905235425 55 257 5.2 7.0 0.00 0.19 0.12 88 1002.4
20260905234423 54 252 3.5 6.1 0.00 0.19 0.11 88 1002.2
20260905233420 54 250 4.3 6.1 0.00 0.19 0.11 88 1002.2
20260905232418 54 237 5.2 7.0 0.00 0.19 0.11 87 1002.1
20260905231416 54 234 6.1 9.6 0.00 0.19 0.11 87 1002.1
20260905230414 55 288 3.5 7.0 0.00 0.19 0.11 87 1002.1
20260905225431 55 280 4.3 7.8 0.00 0.19 0.11 87 1002.1
20260905224410 55 277 3.5 8.7 0.00 0.19 0.11 86 1002.1
20260905223408 55 298 6.1 9.6 0.01 0.19 0.11 86 1002.1
20260905222406 55 294 5.2 9.6 0.08 0.19 0.11 85 1002.1
20260905221424 55 262 4.3 10.4 0.11 0.19 0.11 85 1002.0
20260905220402 55 245 3.5 5.2 0.11 0.19 0.11 84 1002.0
20260905215400 55 243 4.3 7.0 0.11 0.19 0.11 84 1002.0
20260905214418 55 251 3.5 5.2 0.11 0.19 0.11 83 1002.0
20260905213356 56 283 6.1 8.7 0.10 0.17 0.10 83 1002.0
20260905212414 57 287 6.1 17.4 0.03 0.10 0.03 81 1002.0
20260905211352 58 282 6.1 11.3 0.00 0.08 0.00 82 1001.7
20260905210350 58 261 3.5 7.0 0.00 0.08 0.00 82 1001.4
20260905205348 58 260 3.5 6.1 0.00 0.08 0.08 82 1001.2
20260905204405 57 261 3.5 6.1 0.00 0.08 0.08 82 1001.3
20260905203343 57 262 3.5 5.2 0.00 0.08 0.08 82 1001.2
20260905202341 57 259 3.5 5.2 0.00 0.08 0.08 82 1001.2
20260905201340 58 260 3.5 6.1 0.00 0.08 0.08 81 1001.1
20260905200357 58 259 3.5 5.2 0.00 0.08 0.08 80 1001.0
20260905195338 58 259 3.5 6.1 0.00 0.08 0.08 80 1000.9
20260905190326 60 259 3.5 6.1 0.00 0.08 0.08 79 1000.8
20260905185324 60 264 3.5 6.1 0.00 0.08 0.08 79 1000.8
20260905184322 60 260 3.5 5.2 0.00 0.08 0.08 79 1000.9
20260905183321 60 260 3.5 5.2 0.00 0.08 0.08 79 1000.8
20260905182338 60 263 3.5 6.1 0.00 0.08 0.08 79 1000.7
20260905181316 60 263 3.5 6.1 0.00 0.08 0.08 79 1000.7
20260905180314 60 264 3.5 6.1 0.00 0.08 0.08 79 1000.6
20260905175312 60 264 3.5 7.8 0.00 0.08 0.08 78 1000.5
20260905174311 60 265 3.5 5.2 0.00 0.08 0.08 78 1000.4
20260905173309 61 263 3.5 6.1 0.00 0.08 0.08 78 1000.3
20260905172306 61 261 3.5 6.1 0.00 0.08 0.08 77 1000.1
20260905171313 61 265 3.5 5.2 0.00 0.08 0.08 77 1000.0
20260905170302 61 270 3.5 6.1 0.00 0.08 0.08 76 1000.0
20260905165300 62 270 3.5 6.1 0.00 0.08 0.08 76 999.8
20260905164258 62 276 3.5 6.1 0.00 0.08 0.08 76 999.7
20260905163257 62 270 3.5 6.1 0.00 0.08 0.08 75 999.5
20260905162255 62 281 3.5 6.1 0.00 0.08 0.08 75 999.4
20260905161252 63 283 3.5 6.1 0.00 0.08 0.08 74 999.3
20260905160249 63 281 3.5 6.1 0.00 0.08 0.08 74 999.2
20260905155248 63 289 5.2 9.6 0.00 0.08 0.08 72 999.1
20260905154246 64 282 3.5 7.8 0.00 0.08 0.08 74 999.0
20260905153244 64 288 3.5 7.0 0.00 0.08 0.08 75 999.0
20260905152242 64 290 4.3 8.7 0.00 0.08 0.08 73 998.9
20260905151239 64 287 3.5 7.8 0.00 0.08 0.08 72 998.8
20260905150238 65 277 4.3 8.7 0.00 0.08 0.08 72 998.7
20260905145236 65 270 3.5 7.0 0.00 0.08 0.08 72 998.6
20260905144304 65 280 3.5 5.2 0.00 0.08 0.08 72 998.5
20260905143231 65 290 5.2 10.4 0.00 0.08 0.08 71 998.3
20260905142230 65 286 3.5 7.0 0.00 0.08 0.08 71 998.2
20260905141228 66 291 2.6 6.1 0.00 0.08 0.08 71 998.0
20260905140226 65 295 2.6 6.1 0.00 0.08 0.08 72 997.9
20260905135244 66 322 3.5 7.8 0.00 0.08 0.08 70 997.7
20260905134223 67 302 1.7 3.5 0.00 0.08 0.08 73 997.6
20260905133221 67 292 1.7 4.3 0.00 0.08 0.08 72 997.4
20260905132218 66 348 2.6 5.2 0.00 0.08 0.08 72 997.3
20260905131216 66 19 4.3 7.8 0.00 0.08 0.08 72 997.2
20260905130234 66 15 3.5 9.6 0.00 0.08 0.08 72 997.1
20260905125212 66 306 2.6 5.2 0.00 0.08 0.08 74 997.0
20260905124210 66 246 1.7 2.6 0.00 0.08 0.08 81 996.8
20260905123208 65 217 1.7 3.5 0.00 0.08 0.08 80 996.8
20260905122206 65 227 2.6 5.2 0.00 0.08 0.08 81 996.6
20260905121204 65 47 2.6 5.2 0.00 0.08 0.08 82 996.5
20260905120202 66 71 1.7 2.6 0.00 0.08 0.08 80 996.4
20260905115200 66 230 1.7 5.2 0.00 0.08 0.08 80 996.3
20260905114158 67 127 1.7 3.5 0.01 0.08 0.08 78 996.2
20260905113157 65 49 0.9 2.6 0.01 0.08 0.08 81 996.1
20260905112154 64 40 1.7 3.5 0.01 0.08 0.08 80 996.0
20260905111213 64 23 1.7 4.3 0.01 0.08 0.08 81 995.9
20260905110150 64 47 1.7 3.5 0.01 0.08 0.08 81 995.8
20260905105148 65 39 2.6 6.1 0.01 0.08 0.08 77 995.7
20260905104146 67 50 4.3 7.0 0.00 0.07 0.07 78 995.6
20260905103144 69 47 5.2 9.6 0.00 0.07 0.07 78 995.4
20260905102142 68 270 1.7 4.3 0.00 0.07 0.07 74 995.4
20260905101140 69 270 1.7 4.3 0.00 0.07 0.07 77 995.3
20260905100138 70 270 1.7 4.3 0.00 0.07 0.07 78 995.2
20260905095137 70 253 1.7 3.5 0.00 0.07 0.07 79 995.1
20260905094134 69 6 1.7 3.5 0.00 0.07 0.07 84 995.0
20260905093132 67 75 1.7 3.5 0.00 0.07 0.07 86 995.0
20260905092130 65 40 4.3 6.1 0.00 0.07 0.07 87 995.0
20260905091147 65 56 3.5 7.8 0.00 0.07 0.07 89 994.9
20260905090127 63 45 4.3 7.8 0.00 0.07 0.07 89 994.7
20260905085124 63 46 5.2 8.7 0.00 0.07 0.07 88 994.6
20260905084142 62 45 3.5 7.8 0.00 0.07 0.07 89 994.5
20260905083120 61 42 4.3 8.7 0.01 0.07 0.07 89 994.4
20260905082119 60 41 3.5 7.0 0.06 0.07 0.07 89 994.3
20260905081116 59 48 2.6 5.2 0.06 0.07 0.07 88 994.2
20260905080114 58 42 3.5 7.8 0.06 0.07 0.07 86 994.1
20260905075112 58 41 4.3 8.7 0.06 0.07 0.07 84 994.0
20260905074110 60 0 4.3 10.4 0.06 0.07 0.07 81 994.0
20260905073130 65 333 3.5 7.8 0.04 0.06 0.06 76 993.9
20260905072126 67 35 2.6 5.2 0.00 0.01 0.01 77 993.6
20260905071104 67 35 2.6 5.2 0.00 0.01 0.01 78 993.6
20260905070133 66 37 1.7 4.3 0.00 0.01 0.01 79 993.5
20260905065101 65 42 1.7 4.3 0.00 0.01 0.01 79 993.5
20260905064058 65 90 1.7 3.5 0.00 0.01 0.01 81 993.3
20260905063056 64 51 1.7 3.5 0.00 0.01 0.01 81 993.2
20260905062114 65 32 2.6 5.2 0.00 0.01 0.01 84 993.2
20260905061052 64 30 2.6 4.3 0.00 0.01 0.01 86 993.2
20260905060100 63 35 2.6 3.5 0.00 0.01 0.01 87 993.1
20260905055049 62 38 2.6 5.2 0.00 0.01 0.01 89 993.1
20260905054046 60 34 1.7 3.5 0.00 0.01 0.01 89 992.9
20260905053044 58 32 1.7 3.5 0.00 0.01 0.01 89 992.9
20260905052043 57 36 2.6 4.3 0.00 0.01 0.01 89 993.0